Погода в Ряжске

Хотите узнать прогноз погоды в Ряжске? Тогда Вам сюда: Погода в Ряжске

Поиск расширенной информации на нашем сайте:

Полезная информация:

Новости сайта



02.01.2020
Опубликован Долгосрочный прогноз погоды по городам России и ближнего зарубежья на январь 2020 года.
Карты: Прогноз на январь и февраль 2020 года, Сравнение прогнозируемой аномалии приземной температуры воздуха на январь 2020 года по разным моделям.




Погода в Ряжске - сегодня

Время (UTC), дата Ветер
(°,м/с) 
Видим.   Явления Облачность Т
(°С)
Тd
(°С)
f(%) Тe
(°С)
Pmin
(гПа)
dP
(гПа)
Po
(мм)
O2
(г/м3)
Тmin Tmax R s Состояние
почвы
18 24.01.20 240 (ЮЗ) 4000 м  позёмок{снег}  10/10 600 м 
[Sc]
-0.2 -2 88 -2  1002.9  -2.4  740  299           
21 24.01.20 250 (З) 1000 м  снег  10/10 100 м 
[Frnb|Ns]
+0.1 -0 99 -2  1000.9  -1.9  739  298           
00 25.01.20 260 (З) 4{11}  4000 м  дымка{снег}  10/10 600 м 
[Sc]
+1.3 +0.4 94 -1  1000.4  -0.5  739  296           
03 25.01.20 260 (З) 4000 м  дымка  10/10 600 м 
[Sc]
+1.8 +0.4 90 1000  -0.3  738  295  -1.1    14  равномерный
мокрый или
старый снег
100% 
06 25.01.20 270 (З) 4000 м  дымка  9/9 600 м 
[Sc]
+2 +0.4 89 1000  738  295           
09 25.01.20 270 (З) 10 км    9/6 1000 м средняя, верхняя 
[Sc|Ac trans|Ci sp]
+3 +0.2 82 +1  1000.2  0.2  738  294           
12 25.01.20 250 (З) 4{11}  10 км    10/0 средняя 
[Ac As]
+2.7 -0.1 82 +1  998.8  -1.4  737  294           
15 25.01.20 260 (З) 4{10}  4000 м  дымка{дождь}  10/10 600 м 
[Sc]
+1.8 +0.3 90 997.8  -1  737  295    +3.4  0.4     
18 25.01.20 300 (СЗ) 4{18}  10 км  {снег, дождь}  10/10 600 м 
[Sc]
+0.3 -2 85 -2  998.1  0.2  737  297           
21 25.01.20 280 (З) 3{11}  10 км    3/0 средняя 
[Ac trans]
-0.8 -4.1 78 -3  1000.9  2.7  739  299           
00 26.01.20 290 (З) 5{10}  10 км    ясно 
-1.1 -5.1 74 -4  1003.4  2.4  741  300           
03 26.01.20 290 (З) 4{10}  10 км    3/0 средняя 
[Ac trans]
-1.8 -5.3 77 -5  1006.3  2.9  743  302  -1.9    12  равномерный
мокрый или
старый снег
100% 
06 26.01.20 300 (СЗ) 10 км    8/3 1000 м средняя 
[Sc|Ac trans]
-1.7 -4.6 81 -4  1009.7  3.3  745  303           
09 26.01.20 310 (СЗ) 10 км    8/3 600 м средняя 
[Sc|Ac trans]
+0.3 -6.1 62 -1  1011.9  2.3  747  301           
12 26.01.20 290 (З) 4{10}  10 км    9/1 1000 м средняя, верхняя 
[Sc|Ac und|Ci sp]
-0.5 -6.1 66 -3  1013.2  1.2  748  303           
15 26.01.20 250 (З) 10 км    9/0 верхняя 
[Ci sp]
-1.8 -5.1 78 -3  1013.2  748  304    +0.5       
18 26.01.20 230 (ЮЗ) 10 км    10/0 средняя 
[Ac As]
-1.1 -4.1 80 -3  1011.7  -1.5  747  303           
21 26.01.20 250 (З) 4{11}  10 км    10/3 600 м средняя 
[Sc|Ac As]
+0.3 -2.3 83 -2  1009.3  -2.3  745  300           
00 27.01.20 270 (З) 5-10{11}  10 км    10/8 300 м средняя 
[St|Ac As]
+1 -1.4 84 -2  1008.2  -1  744  299           
03 27.01.20 270 (З) 4{11}  10 км    10/10 600 м 
[Sc]
+2 -0.8 82 1008.8  0.6  745  298  -2.2      12  равномерный
мокрый или
старый снег
100% 
06 27.01.20 270 (З) 3{10}  10 км    9/9 600 м 
[Sc]
+2.2 -0.5 82 +1  1010.1  1.3  746  298           
09 27.01.20 290 (З) 10 км  {дождь}  9/9 600 м 
[Sc]
+2.6 +0.3 85 +1  1011.8  1.6  747  298           
12 27.01.20 340 (С) 4000 м  слаб. снег{дождь}  10/10 300 м 
[Frnb|Ns]
+0.7 -0.2 94 +1  1013.6  1.7  748  301           
15 27.01.20 020 (С) н/о    10/10 600 м 
[Sc]
+0.3 -2.7 80 +1  1015.6  1.9  750  302    +2.7  0.4     
18 27.01.20 060 (СВ) 10 км  {снег}  10/0 средняя 
[Ac As]
-0.7 -6.4 65 -2  1016.7  1.1  751  304           
Время (UTC), дата Ветер
(°,м/с) 
Видим.   Явления Облачность Т
(°С)
Тd
(°С)
f(%) Тe
(°С)
Pmin
(гПа)
dP
(гПа)
Po
(мм)
O2
(г/м3)
Тmin Tmax R s Состояние
почвы

Для получения пояснительной информации подведите курсор к названию столбца.

ПОГОДА в Ряжске - архив

Всё, что Вы хотите узнать о погоде в Ряжске - удобно и подробно!

Выберите нужную дату (начиная с 1 января 2019* года) и нажмите кнопку "Найти".
Будут отображены архивные сводки погоды по пункту Ряжск, начиная с указанной даты.


Отображать данные в формате CSV (для использования в таблицах Excel)


Внимание! Наш архив погоды предназначен исключительно для личного некоммерческого использования в познавательных целях. Если Вам необходимы официальные справки о состоянии погоды (для производственных, юридических, коммерческих и т.п. целей), обращайтесь в органы Росгидромета.

*Примечание: данная дата относится к архиву по метеостанциям СССР (Россия, СНГ, Балтия).
Архив по метеостанциям Зарубежной Европы и Азии (кроме Китая) хранится 10 дней, по другим регионам земного шара (Китай, Африка, Америка, Австралия, Океания) - 1 день.

Ряжск - район местоположения метеостанции


Название, широта, долгота, высота метеостанции:
Ряжск 53.7°ш. 40.1°д. 127 м над ур. моря [Российская Федерация]

Дополнительная информация

В oтличие oт бoльшинства пoгoдных сайтoв мы публикуем пoдрoбную метеoинфoрмацию в детальнoм прoфессиoнальнoм фoрмате.

Характеристики температуры и влажнoсти вoздуха измеряются на высoте 2 м в тени вдали oт зданий и деревьев.
Скoрoсть ветра измеряется на высoте 10 м (на урoвне рoста челoвека скoрoсть ветра ниже в 1.5-2 раза). Если метеoстанция нахoдится в гoрoде или в лесу, тo скoрoсть ветра занижена на 2-4 м/с пo сравнению с oткрытым местoм. Скoрoсть ветра над акватoриями крупных рек и oзёр, а также на вершинах хoлмoв на 2-5 м/с выше, чем в oбычных услoвиях.
Атмoсфернoе давление в разных тoчках местнoсти мoжет значительнo oтличаться oт давления на метеoстанции, в зависимoсти oт услoвий рельефа (при пoдъёме на 10 м давление пoнижается примернo на 1 мм рт.ст.).